Location: ????????
(56.0167°N, 38.0333°E)
Time: 14:46:39
(UTC+00:00)

Cosmos 1980 Rocket - Pass Details

Date: 19 May 2025
Orbit: 829 x 847 km, 71.0° (Epoch: 20 June)

Event Time Altitude Azimuth Distance (km) Brightness Sun altitude
Rises 19:02:33 0° 324° (NW) 3,385 7.9 -8.3°
Reaches altitude 10° 19:04:59 10° 323° (NW) 2,448 6.3 -8.5°
Maximum altitude 19:10:35 74° 240° (WSW) 869 2.3 -8.9°
Enters shadow 19:15:51 12° 157° (SSE) 2,327 3.8 -9.3°
